Home   Weather   Orenburg   Past weeks

Flag for Russia Past Weather in Orenburg, Russia — Yesterday and Last 2 Weeks

Now
36 °F

Clear.


Feels Like: 33 °F
Forecast: 42 / 69 °F
Wind: 3 mph from East

Location: Orenburg / Tsentralny

Current Time: Apr 28, 2017 at 5:55:02 am

Latest Report: Apr 28, 2017 at 5:00 am


Visibility: 10 mi

Pressure: 30.48 "Hg

Humidity: 87%

Dew Point: 32 °F

Location of OrenburgLocation

Past Weather in Orenburg — Graph

°F

Orenburg Temperature Yesterday

Maximum temperature yesterday: 64 °F (at 2:30 pm)
Minimum temperature yesterday: 30 °F (at 3:30 am)
Average temperature yesterday: 49 °F

High & Low Weather Summary for the Past Weeks

 TemperatureHumidityPressure
High75 °F (Apr 20, 1:30 pm)100% (Apr 26, 10:00 am)30.48 "Hg (Apr 26, 10:00 am)
Low25 °F (Apr 22, 2:30 am)16% (Apr 19, 3:00 pm)29.33 "Hg (Apr 15, 11:30 am)
Average48 °F65%29.95 "Hg
* Reported Apr 13 4:00 am — Apr 28 4:30 am, Orenburg, Weather by CustomWeather, © 2017

Note: Actual official high and low records may vary slightly from our data, if they occured in-between our weather recording intervals... More about our weather records

Advertising

Orenburg Weather History for the Previous 24 Hours

Scroll right to see more
 ConditionsComfort  
Time TempWeatherWind HumidityBarometerVisibility
4:30 am
Fri, Apr 28
36 °FClear.1 mph87%30.48 "Hg10 mi
4:00 am39 °FClear.1 mph81%30.48 "Hg10 mi
3:30 am41 °FClear.1 mph81%30.48 "Hg10 mi
3:00 am43 °FClear.1 mph76%30.48 "Hg10 mi
2:30 am45 °FClear.3 mph71%30.48 "Hg10 mi
2:00 am46 °FClear.6 mph66%30.48 "Hg10 mi
1:30 am45 °FClear.8 mph71%30.48 "Hg10 mi
1:00 am46 °FClear.3 mph66%30.48 "Hg10 mi
12:30 am45 °FClear.1 mph71%30.45 "Hg10 mi
12:00 am48 °FClear.6 mph62%30.45 "Hg10 mi
11:30 pm
Thu, Apr 27
50 °FClear.8 mph62%30.45 "Hg10 mi
11:00 pm52 °FClear.8 mph58%30.45 "Hg10 mi
10:30 pm52 °FClear.8 mph54%30.45 "Hg10 mi
10:00 pm52 °FClear.8 mph54%30.45 "Hg10 mi
9:30 pm55 °FSunny.10 mph47%30.45 "Hg10 mi
9:00 pm50 °FSunny.6 mph58%30.45 "Hg10 mi
8:30 pm54 °FSunny.8 mph51%30.45 "Hg10 mi
8:00 pm59 °FSunny.10 mph39%30.42 "Hg10 mi
7:30 pm61 °FSunny.15 mph39%30.42 "Hg10 mi
7:00 pm63 °FSunny.17 mph34%30.42 "Hg10 mi
6:30 pm64 °FPassing clouds.17 mph32%30.42 "HgN/A
5:30 pm64 °FScattered clouds.15 mph32%30.45 "HgN/A
5:00 pm64 °FScattered clouds.13 mph32%30.45 "HgN/A
4:30 pm63 °FScattered clouds.13 mph34%30.45 "HgN/A
3:30 pm63 °FScattered clouds.17 mph34%30.45 "HgN/A
3:00 pm64 °FScattered clouds.22 mph32%30.48 "HgN/A
2:30 pm64 °FScattered clouds.20 mph32%30.45 "HgN/A
2:00 pm63 °FPartly sunny.20 mph39%30.45 "HgN/A
1:30 pm61 °FScattered clouds.15 mph36%30.45 "HgN/A
1:00 pm63 °FPartly sunny.17 mph32%30.48 "HgN/A
12:30 pm63 °FScattered clouds.17 mph32%30.48 "HgN/A
12:00 pm61 °FSunny.15 mph36%30.48 "Hg10 mi
11:30 am59 °FSunny.15 mph39%30.48 "Hg10 mi
11:00 am57 °FSunny.13 mph39%30.48 "Hg10 mi
10:30 am55 °FSunny.10 mph41%30.48 "Hg10 mi
9:30 am46 °FPassing clouds.3 mph66%30.48 "HgN/A
8:30 am36 °FSunny.3 mph93%30.48 "Hg10 mi
8:00 am36 °FSunny.3 mph93%30.48 "Hg10 mi
7:30 am34 °FSunny.3 mph93%30.48 "Hg10 mi
6:30 am32 °FIce fog.No wind93%30.45 "Hg3 mi
6:00 am30 °FClear.3 mph100%30.45 "Hg6 mi
5:30 am30 °FClear.3 mph100%30.45 "Hg4 mi
5:00 am30 °FClear.6 mph100%30.42 "Hg4 mi
Weather by CustomWeather, © 2017

See weather overviewHow to use our weather pages